Regional Weather Roundup
Issued by NWS Newport/Morehead, NC

Current Version | Previous Version | Graphics & Text | Print | Product List | Glossary Off
Versions: 1 2 3 4 5 6 7 8 9 10 11 12 13 14 15 16 17 18 19 20 21 22 23 24 25 26 27 28 29 30 31 32 33 34 35 36 37 38 39 40 41 42 43 44 45 46 47 48 49 50

000
ASUS42 KMHX 050613
RWRMHX
WEATHER ROUNDUP FOR EASTERN NORTH CAROLINA
NATIONAL WEATHER SERVICE NEWPORT/MOREHEAD CITY NC
200 AM EDT TUE MAY 05 2015

NOTE: "FAIR" INDICATES FEW OR NO CLOUDS BELOW 12,000 FEET
WITH NO SIGNIFICANT WEATHER AND/OR OBSTRUCTIONS TO VISIBILITY

NCZ015>017-031-032-045>047-102-103-050700-
NORTH COAST

CITY           SKY/WX    TMP DP  RH WIND       PRES   REMARKS
EDENTON        CLEAR     62  55  79 SW3       30.34S
ELIZABETH CITY CLEAR     62  54  74 SW8       30.33S
KITTY HAWK     CLEAR     63  52  66 SW5       30.33S
MANTEO         CLEAR     63  53  71 SW6       30.34F

$$

NCZ045>047-081-094-103-104-050700-
CENTRAL COAST

CITY           SKY/WX    TMP DP  RH WIND       PRES   REMARKS
FRISCO         CLEAR     62  56  80 SW6       30.35F
SWANQUARTER      N/A     64 N/A N/A SW5       30.30F

$$

NCZ095-097-098-100-101-050700-
SOUTHERN COAST

CITY           SKY/WX    TMP DP  RH WIND       PRES   REMARKS
BEAUFORT       CLEAR     63  57  81 S5        30.35S
CEDAR ISLAND     N/A     63 N/A N/A S5        30.39S
JACKSONVILLE   CLEAR     55  53  93 CALM      30.34F
PINEY ISLAND   CLEAR    N/A N/A N/A S6        30.34F
WILMINGTON     CLEAR     56  54  93 CALM      30.34F


$$

NCZ011>013-027>030-043-044-078>080-089-090>093-098-050700-
COASTAL PLAIN

CITY           SKY/WX    TMP DP  RH WIND       PRES   REMARKS
AHOSKIE        CLEAR     61  50  67 S3        30.33F
CLINTON        CLEAR     58  55  89 CALM      30.35S
ELIZABETHTOWN  CLEAR     57  54  90 CALM      30.34S
GOLDSBORO      CLEAR     61  50  67 CALM      30.32F
GREENVILLE     CLEAR     61  54  77 SW3       30.34S
HAVELOCK       NOT AVBL
KENANSVILLE    CLEAR     53  50  90 CALM      30.36S
KINSTON        CLEAR     58  54  87 CALM      30.35S
NEW BERN       CLEAR     54  51  90 CALM      30.35F
RICHLANDS      CLEAR     54  48  82 CALM      30.35S
ROCKY MOUNT    CLEAR     62  52  69 S6        30.33F
WASHINGTON     CLEAR     60  54  79 CALM      30.34F
WHITEVILLE     CLEAR     55  53  92 CALM      30.33F

$$

AMZ130-135-150-152-154-156-158-170-250-252-270-ANZ085-086-088-633-658-670-050700-
MARINE OBSERVATIONS

STATION/POSITION TIME  TEMP    WIND        PRES    WAVE   SWELL
                       AIR SEA DIR/SP/G            HT/PER HT/PER
                 (UTC) (F)     (DEG/KT/KT) (MB)    (FT/S) (FT/S)
CHESAPEAKE LIGHT 0500   65     220/ 22/ 22 1026.3
64 E VA BEACH    0550   62 60  220/ 14/ 16 1026.5    3/ 9   3/ 9
DUCK             0500   66 53  200/  9/ 11 1026.3
2 E DUCK         0511      56                N/A     2/ 9   2/11
OREGON INLET     0500   67 68  200/  8/  8 1027.6
13E OREGON INLT  0600      60                N/A     3/ 8   2/13
HATTERAS CG      0506   68 65  210/  5/  8 1027.4
DIAMOND BUOY     0550   73 77  190/ 14/ 16 1027.6    3/11   3/11
CAPE LOOKOUT     0600   67     190/  6/  6 1027.4
BEAUFORT LAB     0506   67 66  180/  4/  5 1026.8
27 SE WRIGHTSVLE 0500   69 71  170/ 12/ 14   N/A
5 SE WRIGHTSVLE  0508   69 69  180/  6/  8 1027.6
225 S CAPE HAT   0550   68 70  110/ 14/ 16 1027.0    5/11   3/11
41 SE CHARLESTON 0550   73 74  100/ 12/ 16 1025.7    4/ 6   3/ 6

$$



USA.gov is the U.S. government's official web portal to all federal, state and local government web resources and services.